Yakima, WA
on Tuesday, February 26, 2013

Tuesday
Previous Day Next Day
Daily Summary
 ActualAverageRecord
Temperature
Mean Temperature °F 38°F  
Max Temperature 51°F 50°F 65°F (1953)
Min Temperature 23°F 27°F 4°F (2011)
Degree Days
Heating Degree Days 28 27  
Month to date heating degree days 649 757  
Since 1 July heating degree days 3918 4475  
Cooling Degree Days 0 0  
Month to date cooling degree days 0 0  
Year to date cooling degree days 0 0  
Moisture
Dew Point 21°F   
Average Humidity 52    
Maximum Humidity 74    
Minimum Humidity 29    
Precipitation
Precipitation 0.00 in 0.03 in 0.46 in (2010)
Month to date precipitation T 0.73  
Year to date precipitation 0.10 1.87  
Snow
Snow 0.00 in 0.10 in 1.20 in (1976)
Month to date snowfall 0.0 2.5  
Year to date snowfall 1.1 7.8  
Since 1 July snowfall 15.3 20.8  
Snow Depth 0.00 in   
Wind
Wind Speed 3 mph   
Max Wind Speed 12 mph   
Max Gust Speed 21 mph   
Visibility 10 miles   
Events     

Key: T is trace of precipitation, MM is missing value
Source: NWS Daily Summary
Time(PST)TemperatureDew PointHumidity Pressure Visibility Wind DirectionWind SpeedGust SpeedPrecipitationEvents Conditions
12:53 AM 30.0°F 19.0°F 64% 30.25 in 10.0 miles NE 3.5 mph - N/A   Clear
1:53 AM 28.9°F 19.0°F 67% 30.27 in 10.0 miles Calm Calm - N/A   Clear
2:53 AM 24.1°F 17.1°F 75% 30.28 in 10.0 miles Calm Calm - N/A   Clear
3:53 AM 25.0°F 18.0°F 75% 30.30 in 10.0 miles WSW 3.5 mph - N/A   Clear
4:53 AM 25.0°F 18.0°F 75% 30.30 in 10.0 miles WNW 4.6 mph - N/A   Clear
5:53 AM 28.9°F 19.9°F 69% 30.31 in 10.0 miles Calm Calm - N/A   Scattered Clouds
6:53 AM 28.9°F 19.9°F 69% 30.33 in 10.0 miles East 4.6 mph - N/A   Scattered Clouds
7:53 AM 33.1°F 21.9°F 64% 30.34 in 10.0 miles Calm Calm - N/A   Clear
8:53 AM 37.0°F 23.0°F 57% 30.35 in 10.0 miles Calm Calm - N/A   Clear
9:53 AM 44.1°F 21.9°F 42% 30.34 in 10.0 miles Calm Calm - N/A   Clear
10:53 AM 46.0°F 23.0°F 40% 30.33 in 10.0 miles Variable 3.5 mph - N/A   Clear
11:53 AM 48.0°F 21.9°F 36% 30.32 in 10.0 miles East 6.9 mph - N/A   Clear
12:53 PM 48.9°F 21.9°F 35% 30.30 in 10.0 miles South 6.9 mph - N/A   Clear
1:53 PM 48.9°F 21.0°F 33% 30.27 in 10.0 miles SE 10.4 mph - N/A   Clear
2:53 PM 50.0°F 21.0°F 32% 30.26 in 10.0 miles SSE 4.6 mph - N/A   Clear
3:53 PM 50.0°F 19.9°F 31% 30.25 in 10.0 miles SE 10.4 mph - N/A   Clear
4:53 PM 48.9°F 23.0°F 36% 30.24 in 10.0 miles SE 5.8 mph - N/A   Clear
5:53 PM 45.0°F 21.9°F 40% 30.24 in 10.0 miles Calm Calm - N/A   Clear
6:53 PM 45.0°F 24.1°F 44% 30.23 in 10.0 miles Calm Calm - N/A   Clear
7:53 PM 43.0°F 25.0°F 49% 30.22 in 10.0 miles Calm Calm - N/A   Mostly Cloudy
8:53 PM 43.0°F 24.1°F 47% 30.23 in 10.0 miles NNE 3.5 mph - N/A   Clear
9:53 PM 42.1°F 23.0°F 47% 30.22 in 10.0 miles Variable 3.5 mph - N/A   Partly Cloudy
10:53 PM 37.0°F 24.1°F 59% 30.22 in 10.0 miles NW 6.9 mph - N/A   Clear
11:53 PM 32.0°F 21.9°F 66% 30.22 in 10.0 miles Calm Calm - N/A   Clear
Moon Phase
Feb. 26 Mar. 04 Mar. 11 Mar. 19 Mar. 27
Sunrise:06:46 AM (PST) Moon Rise:07:14 PM (PST)
Sunset:05:44 PM (PST) Moon Set:06:45 AM (PST)

Copyright © 2014 The Weather Underground, Inc.